Vertical_Velocity
0 1 1 1 -1 -0 -0 -2 1 0 -1 -1 1 2 -1 1 -1 -3 -4 -2 -2 -2 1 1 1 1 -1 -1 -1 -1 -1 -1 -1 0 1 2 1 1 1 2 2 1 0 2 1 1 2 2 5
-1 1 -2 -2 -0 0 -1 0 -0 -1 -0 1 -1 0 0 -0 -1 -2 -2 -0 2 -0 -2 -1 0 -1 0 -1 -0 -2 -1 -1 0 1 2 1 -1 2 2 4 0 -1 1 -0 0 1 1 -0 1
1 1 8 12 -2 1 -1 -0 -2 2 -0 -2 1 -0 0 1 -1 -2 -1 -3 -0 1 1 -1 -0 0 1 0 1 -0 0 1 1 1 2 -1 1 0 6 -0 1 1 1 2 0 -0 -1 -0 -1
0 1 1 4 0 1 6 1 2 3 1 -1 -1 -1 -0 -1 -0 1 2 -1 -1 1 0 -1 1 1 2 1 1 0 1 2 1 0 6 1 -2 -0 5 0 -0 1 1 2 1 0 1 1 0
-1 0 0 1 -0 -1 -0 2 -0 3 -3 -1 -2 -1 -1 1 0 1 1 -0 -1 -2 1 -0 1 1 1 0 0 0 -0 1 0 1 -1 0 0 -1 -2 -1 1 1 1 -0 -1 -2 2 1 2
-1 -1 -0 -3 -1 -2 -1 -4 9 -6 1 -1 -0 -1 -2 1 -1 2 1 -0 0 1 0 0 0 0 1 -0 0 0 -1 -1 -2 -0 -0 -2 -3 -1 -2 -1 1 1 1 1 1 -2 -2 -1 1
-1 -2 -3 -0 -2 1 -1 -1 5 2 -5 2 1 1 1 -1 -2 -1 0 0 -1 1 0 0 0 0 0 0 -1 -0 -1 1 -2 -0 2 -1 -1 -2 -1 0 -1 -0 1 -1 0 1 -0 -0 1
0 -2 -2 1 4 -0 -1 7 -1 0 -3 -1 -0 1 -3 -2 -2 1 -1 -0 1 1 0 -0 0 -0 -0 -0 -1 -0 0 -2 -3 -2 -0 -0 0 -1 0 -1 -0 -1 -1 1 1 -1 1 1 -2
0 -1 -2 0 2 -4 0 1 1 1 -0 0 -1 -3 2 -1 -2 -1 -0 0 -1 1 0 -1 -1 -1 -1 -0 -2 0 0 -0 -1 -0 -1 1 -1 1 -0 -1 -1 1 1 2 1 0 0 1 1
1 -1 -1 -1 7 -3 -1 -1 2 -0 -1 -0 -1 1 -3 3 -1 -5 -1 -0 -1 0 -0 0 -1 -0 -1 -1 -2 -1 -0 -0 -1 0 -1 0 0 0 -1 -5 -1 0 0 0 1 -1 -2 -2 0
-0 -3 0 -1 -1 5 -1 1 -1 0 -1 1 1 0 -2 0 1 -3 -1 1 -2 -0 -1 1 -0 -0 -0 -1 -1 -0 -0 1 -1 -1 -1 1 0 1 1 -0 -3 -1 -0 0 0 -1 -1 -0 0
1 -1 -0 0 -0 0 -1 -2 -1 1 -2 0 1 -0 -1 -3 0 -3 -1 1 -1 1 -1 0 0 -0 1 0 -1 -1 0 1 -1 -2 -2 -0 -0 -0 1 1 -2 -3 -1 -1 1 0 -2 -2 -1
2 -2 -1 1 1 -0 1 1 3 2 -1 -2 -1 -2 2 -0 -2 -2 -2 1 -1 0 -2 0 -0 -0 1 -1 -1 -0 -1 -1 -1 -2 -3 -1 -0 -0 0 0 0 -2 0 -1 -0 -2 -0 -2 -1
-2 1 -2 0 -1 -1 -0 -1 2 0 -0 -1 -1 1 -0 0 -4 -3 -2 1 -1 1 -1 -1 -0 -1 0 -0 -1 -1 -1 -1 -2 -1 -2 -2 -2 0 -2 0 0 -2 -2 -1 -1 -1 -1 -2 -0
-7 -3 2 2 -0 0 1 1 1 3 1 0 0 0 -0 1 -3 -3 -4 -3 -3 -0 -0 -0 -2 -0 -1 -0 -1 -2 -0 -1 -1 -0 -1 -1 -1 1 -1 -2 -0 -1 -2 -1 -2 -0 0 -0 -2
-1 -3 -0 -3 -1 1 0 -0 -1 2 -0 1 1 -2 -1 -2 -1 -2 -2 -1 0 -1 1 1 -0 -1 -1 -0 -0 -2 -1 -1 -1 -2 -2 -2 -1 -0 0 0 0 -2 -2 -2 -1 -0 -1 -1 -2
-4 2 3 -3 -2 -0 2 2 3 1 1 1 0 -1 -2 1 1 1 -2 -2 -2 -2 1 0 1 -1 -1 -0 0 0 0 -2 -0 -0 -1 -1 -1 -0 -2 0 4 -2 -2 -4 -1 -2 -1 -0 -1
7 4 2 2 0 2 -0 1 3 2 -2 -2 -1 -1 -1 -1 -1 0 -1 -0 -1 -1 -2 -3 -2 1 1 -0 0 0 2 -1 -2 -1 0 -0 -1 -2 -2 5 1 0 -1 -2 -2 -2 -2 -1 -0
-0 -1 4 1 4 7 0 -2 2 1 4 2 2 -0 -1 -2 -2 -1 -1 -1 -1 -1 -1 -1 0 1 2 3 0 0 0 1 -2 -2 -2 -2 -1 -2 -2 -3 -4 2 -0 0 -2 -1 -0 1 -1
2 -3 10 -4 -2 -2 8 3 1 2 6 -1 -3 -2 -1 -1 0 -1 -2 2 -0 -2 -2 -1 -2 -0 0 0 -0 -0 -1 -1 0 0 -3 -2 -2 -2 -2 -2 -2 3 8 2 -3 -2 -2 -1 -0
4 -1 7 6 -4 -0 0 -0 -4 5 3 -1 2 -3 -1 -4 -3 1 -0 -2 -0 0 1 -1 0 -2 -1 -1 1 2 2 0 0 2 -2 -2 -2 -1 -1 -1 -1 1 1 -1 -3 -2 -1 -2 -1
2 3 10 6 1 -3 4 1 -2 2 3 1 0 4 -1 -3 -3 -1 -1 0 2 1 -4 -1 -0 -1 -3 -1 1 2 -1 -2 0 -1 -1 -2 -1 -1 -0 -1 -1 1 4 2 -1 -0 -1 -3 -1
20 2 1 9 2 2 -4 -8 7 1 -4 -0 3 3 3 1 -3 -4 -2 -1 -1 -3 -1 -3 -1 -1 -1 -1 -0 -3 -1 1 2 2 -0 -1 -2 -2 -1 -1 -2 -1 -2 2 5 2 1 -2 -1
3 1 0 1 6 -29 4 -5 4 -5 5 3 3 1 1 2 -0 -1 -4 -2 -1 -0 -2 -1 -3 -1 2 -1 -1 0 -2 2 -0 -0 -1 -1 -0 -1 -1 -1 -2 -2 -2 -2 -2 4 -0 -1 -1
-8 -1 -0 -4 -17 -14 6 -22 19 1 2 3 5 6 5 3 0 -1 -0 -2 -1 -1 -2 1 0 -1 -0 2 -1 -0 2 1 -0 -2 -1 -1 1 -2 -2 -1 -1 -2 -2 -2 -1 -0 -0 -1 1
1 10 2 -11 -13 9 8 -36 -2 4 5 6 -1 6 1 -2 -0 -1 -2 -3 -2 -0 -1 -3 1 -2 0 1 2 -1 -0 0 0 -1 -0 -1 -1 0 -1 -2 -1 -1 -2 -2 -1 -1 -0 -1 -3
16 -45 45 5 -5 -8 23 -1 -2 5 -1 1 1 3 -1 5 0 3 -2 -1 -3 -0 1 0 -1 -0 -1 1 1 2 -1 0 4 2 0 -0 -1 -1 -1 -0 -2 -1 -0 -1 -0 -1 -1 0 -1
-27 47 3 -11 -27 -12 7 -11 -10 -1 4 4 -4 -1 -1 2 1 -2 1 -2 -4 -2 0 -2 -2 -2 0 -1 -1 0 1 -1 -2 -0 2 1 -1 -0 -1 -0 -1 -1 -0 -1 -1 -0 -1 0 -0
11 -13 -13 5 -9 4 14 -2 -5 4 10 1 -2 0 3 0 4 1 -1 -1 0 -2 -2 0 -0 -0 -1 -1 -1 -3 1 -1 -3 -1 0 -0 -1 0 -0 -0 2 0 -1 -1 -1 2 -0 0 -1
11 -11 11 -2 -4 -3 -8 -6 -5 5 9 5 6 4 0 2 5 7 7 6 -1 1 -2 -2 -1 -1 1 -0 -1 2 -1 -2 -3 -2 -1 -1 2 1 1 1 0 1 0 -1 -1 0 0 2 -1
Height
5884 5885 5884 5885 5888 5888 5888 5890 5890 5893 5895 5895 5896 5898 5899 5900 5900 5904 5903 5904 5904 5904 5903 5905 5904 5903 5903 5905 5907 5908 5908 5908 5909 5911 5912 5913 5914 5914 5914 5914 5913 5913 5913 5913 5912 5912 5913 5913 5912
5884 5885 5884 5883 5887 5887 5889 5890 5890 5893 5894 5895 5895 5898 5899 5901 5903 5904 5903 5904 5904 5904 5904 5905 5905 5905 5905 5907 5908 5909 5909 5910 5912 5914 5914 5915 5915 5915 5915 5915 5914 5913 5913 5913 5913 5913 5913 5913 5913
5884 5884 5883 5881 5885 5887 5888 5890 5889 5893 5894 5895 5897 5898 5900 5903 5904 5905 5904 5903 5904 5905 5906 5906 5906 5907 5908 5909 5910 5911 5911 5913 5914 5915 5916 5917 5918 5918 5916 5916 5915 5914 5913 5912 5912 5912 5913 5913 5914
5884 5885 5885 5884 5883 5885 5885 5889 5890 5893 5895 5897 5898 5899 5901 5903 5905 5905 5905 5905 5905 5906 5907 5908 5909 5909 5910 5911 5912 5912 5913 5914 5915 5916 5917 5918 5919 5918 5918 5918 5916 5914 5913 5911 5910 5911 5913 5915 5916
5884 5885 5885 5885 5885 5885 5884 5885 5889 5892 5894 5898 5898 5899 5901 5903 5904 5904 5905 5904 5905 5906 5908 5909 5910 5911 5912 5913 5913 5913 5914 5916 5916 5917 5918 5919 5920 5919 5919 5918 5917 5916 5914 5912 5911 5912 5915 5917 5919
5884 5885 5885 5884 5884 5885 5886 5888 5889 5891 5894 5897 5899 5899 5901 5901 5903 5904 5905 5905 5905 5906 5908 5910 5911 5912 5912 5913 5914 5915 5915 5916 5917 5919 5920 5921 5921 5921 5921 5921 5920 5919 5917 5915 5914 5915 5918 5921 5921
5883 5884 5883 5884 5884 5886 5888 5889 5889 5893 5893 5897 5899 5899 5901 5901 5903 5904 5905 5906 5906 5907 5908 5909 5911 5912 5912 5913 5914 5915 5917 5917 5919 5921 5922 5923 5924 5923 5923 5923 5923 5921 5920 5919 5918 5921 5922 5923 5924
5881 5883 5883 5884 5885 5887 5888 5889 5890 5893 5894 5897 5898 5899 5899 5901 5902 5903 5905 5905 5906 5908 5908 5910 5911 5912 5913 5915 5916 5917 5918 5920 5922 5923 5924 5925 5926 5926 5926 5925 5926 5924 5924 5923 5923 5925 5926 5927 5927
5880 5882 5882 5883 5884 5886 5888 5890 5891 5893 5894 5897 5898 5899 5900 5901 5901 5902 5904 5906 5906 5907 5908 5910 5912 5914 5915 5917 5918 5919 5921 5923 5924 5926 5927 5927 5928 5929 5929 5929 5928 5928 5927 5927 5927 5928 5929 5929 5930
5880 5881 5882 5882 5883 5885 5887 5890 5891 5892 5894 5896 5897 5898 5898 5901 5901 5901 5904 5905 5906 5907 5909 5911 5913 5915 5917 5919 5920 5922 5923 5925 5927 5928 5929 5930 5931 5931 5931 5931 5930 5931 5931 5930 5930 5931 5931 5931 5932
5879 5880 5882 5883 5884 5885 5885 5889 5891 5892 5893 5895 5896 5897 5898 5901 5902 5902 5904 5905 5906 5908 5910 5912 5914 5917 5920 5921 5923 5924 5925 5927 5929 5930 5930 5931 5932 5933 5934 5933 5933 5933 5933 5933 5933 5933 5933 5933 5934
5878 5879 5881 5883 5884 5886 5887 5889 5891 5892 5893 5894 5896 5897 5899 5899 5901 5902 5904 5905 5907 5908 5910 5914 5916 5919 5922 5924 5926 5928 5929 5930 5931 5932 5933 5933 5934 5935 5937 5936 5936 5935 5934 5935 5935 5936 5935 5936 5937
5876 5877 5880 5882 5885 5886 5887 5888 5891 5893 5892 5894 5896 5896 5899 5899 5901 5903 5903 5906 5907 5908 5911 5914 5917 5920 5923 5926 5928 5929 5931 5932 5932 5934 5934 5934 5935 5937 5938 5938 5937 5936 5935 5937 5937 5938 5938 5939 5940
5872 5875 5878 5881 5883 5885 5886 5888 5889 5891 5892 5893 5895 5896 5897 5900 5901 5903 5904 5907 5909 5910 5912 5915 5918 5922 5925 5927 5929 5931 5932 5933 5934 5935 5936 5936 5937 5938 5939 5939 5939 5937 5937 5938 5940 5939 5940 5941 5942
5869 5873 5876 5879 5881 5884 5886 5889 5890 5892 5893 5893 5894 5896 5897 5901 5902 5902 5903 5906 5908 5910 5913 5915 5919 5923 5925 5928 5930 5931 5933 5934 5935 5936 5938 5939 5939 5939 5939 5940 5940 5939 5938 5940 5940 5941 5941 5943 5944
5867 5871 5875 5878 5880 5883 5886 5888 5890 5892 5892 5892 5893 5896 5897 5900 5902 5902 5904 5907 5909 5911 5913 5917 5920 5923 5926 5929 5931 5932 5933 5935 5936 5938 5940 5941 5940 5940 5940 5939 5940 5940 5939 5940 5941 5942 5943 5944 5945
5862 5870 5873 5876 5879 5881 5884 5887 5890 5892 5891 5892 5893 5894 5896 5900 5902 5902 5904 5906 5909 5911 5914 5917 5921 5923 5927 5930 5932 5934 5935 5936 5938 5939 5941 5941 5940 5941 5941 5941 5941 5940 5939 5940 5942 5944 5945 5946 5948
5864 5869 5870 5874 5877 5880 5882 5885 5889 5890 5891 5892 5893 5894 5896 5898 5901 5901 5903 5905 5909 5912 5914 5917 5920 5924 5927 5931 5933 5935 5937 5938 5939 5941 5942 5942 5942 5942 5942 5942 5943 5942 5941 5942 5944 5946 5947 5948 5950
5855 5862 5865 5869 5873 5876 5878 5881 5886 5889 5891 5891 5892 5893 5895 5897 5899 5899 5902 5904 5908 5911 5915 5918 5921 5924 5927 5930 5934 5936 5938 5939 5940 5942 5943 5944 5944 5944 5944 5944 5944 5945 5944 5945 5946 5948 5949 5951 5952
5846 5854 5860 5861 5865 5871 5875 5879 5881 5887 5888 5887 5889 5891 5893 5896 5897 5898 5900 5903 5907 5909 5912 5917 5921 5924 5926 5929 5932 5935 5938 5940 5941 5944 5944 5945 5946 5946 5946 5946 5946 5948 5949 5949 5950 5950 5951 5952 5954
5840 5846 5852 5856 5857 5863 5868 5871 5874 5881 5883 5885 5887 5886 5888 5891 5895 5897 5899 5901 5904 5908 5911 5915 5919 5922 5925 5928 5933 5936 5939 5941 5943 5944 5945 5945 5946 5947 5947 5948 5948 5950 5951 5952 5952 5953 5953 5954 5956
5830 5842 5845 5848 5849 5855 5858 5864 5867 5874 5879 5882 5884 5887 5887 5889 5892 5895 5897 5899 5902 5905 5908 5911 5916 5919 5923 5927 5932 5935 5937 5939 5942 5944 5945 5946 5947 5948 5949 5950 5951 5952 5954 5954 5954 5955 5954 5955 5957
5828 5826 5833 5838 5839 5844 5847 5852 5862 5865 5868 5876 5883 5886 5887 5887 5889 5891 5894 5897 5898 5900 5905 5909 5913 5917 5921 5926 5930 5933 5937 5940 5943 5944 5945 5946 5948 5949 5949 5951 5952 5954 5955 5955 5956 5957 5956 5956 5957
5816 5815 5820 5822 5826 5821 5838 5840 5851 5855 5867 5874 5879 5882 5884 5885 5887 5889 5891 5893 5896 5899 5902 5906 5911 5915 5919 5924 5928 5932 5936 5939 5941 5943 5945 5946 5948 5950 5950 5951 5953 5954 5955 5955 5956 5957 5957 5958 5958
5800 5802 5806 5810 5807 5813 5834 5828 5843 5851 5861 5868 5873 5878 5881 5882 5883 5887 5888 5890 5892 5895 5899 5904 5909 5913 5917 5922 5926 5930 5934 5938 5939 5942 5945 5947 5948 5950 5951 5952 5953 5955 5956 5957 5957 5957 5958 5959 5959
5787 5792 5794 5799 5805 5814 5820 5812 5826 5844 5856 5860 5864 5871 5873 5877 5880 5882 5885 5887 5889 5891 5895 5899 5905 5910 5914 5918 5923 5927 5931 5935 5937 5940 5944 5946 5948 5949 5950 5952 5953 5954 5956 5957 5958 5958 5959 5959 5959
5775 5776 5792 5790 5801 5805 5803 5810 5826 5837 5842 5848 5856 5862 5869 5875 5877 5880 5882 5884 5886 5888 5892 5896 5901 5904 5910 5914 5918 5923 5928 5932 5936 5939 5942 5944 5947 5949 5950 5951 5952 5954 5956 5957 5958 5959 5959 5959 5959
5760 5771 5770 5774 5785 5790 5791 5798 5815 5831 5837 5843 5849 5856 5863 5869 5874 5877 5879 5881 5883 5884 5888 5892 5897 5901 5904 5908 5914 5918 5923 5927 5930 5936 5939 5942 5945 5947 5948 5950 5950 5952 5954 5956 5957 5958 5958 5959 5960
5746 5747 5755 5769 5775 5782 5786 5790 5809 5824 5835 5839 5843 5851 5858 5863 5869 5874 5876 5879 5880 5880 5883 5888 5893 5898 5902 5905 5909 5913 5918 5923 5927 5932 5935 5938 5942 5944 5946 5947 5948 5950 5951 5953 5955 5956 5956 5957 5959
5725 5733 5746 5750 5764 5770 5773 5784 5804 5818 5827 5833 5840 5846 5851 5857 5864 5869 5872 5874 5875 5878 5880 5884 5888 5893 5898 5901 5905 5910 5914 5918 5923 5928 5932 5935 5938 5941 5943 5944 5945 5946 5947 5949 5951 5953 5954 5955 5956